TimeEST,TemperatureF,Dew PointF,Humidity,Sea Level PressureIn,VisibilityMPH,Wind Direction,Wind SpeedMPH,Gust SpeedMPH,PrecipitationIn,Events,Conditions,WindDirDegrees,DateUTC
12:53 AM,25.0,3.9,41,29.97,10.0,West,6.9,-,N/A,,Overcast,280,2013-02-05 05:53:00
1:53 AM,25.0,5.0,43,29.96,10.0,WNW,4.6,-,N/A,,Overcast,290,2013-02-05 06:53:00
2:53 AM,25.0,6.1,45,29.96,10.0,Calm,Calm,-,N/A,,Overcast,0,2013-02-05 07:53:00
3:53 AM,25.0,7.0,46,29.97,10.0,Calm,Calm,-,N/A,,Overcast,0,2013-02-05 08:53:00
4:53 AM,25.0,10.0,53,29.97,10.0,Calm,Calm,-,N/A,,Overcast,0,2013-02-05 09:53:00
5:53 AM,25.0,10.0,53,29.97,10.0,NE,3.5,-,N/A,,Overcast,50,2013-02-05 10:53:00
6:53 AM,24.1,12.0,60,29.98,10.0,ENE,4.6,-,N/A,,Overcast,60,2013-02-05 11:53:00
7:53 AM,24.1,12.0,60,29.99,10.0,ENE,4.6,-,N/A,,Overcast,60,2013-02-05 12:53:00
8:48 AM,23.0,12.2,63,30.00,2.5,ENE,4.6,-,0.00,Snow,Light Snow,60,2013-02-05 13:48:00
8:53 AM,23.0,12.9,65,30.01,2.0,NE,4.6,-,0.00,Snow,Light Snow,50,2013-02-05 13:53:00
9:00 AM,23.0,12.2,63,30.00,1.5,NE,4.6,-,0.00,Snow,Light Snow,50,2013-02-05 14:00:00
9:25 AM,23.0,15.8,74,30.00,2.0,East,5.8,-,0.00,Snow,Light Snow,80,2013-02-05 14:25:00
9:35 AM,21.2,15.8,80,30.01,4.0,ENE,5.8,-,0.00,Snow,Light Snow,70,2013-02-05 14:35:00
10:07 AM,23.0,15.8,74,30.01,2.0,ENE,5.8,-,0.00,Snow,Light Snow,70,2013-02-05 15:07:00
10:25 AM,23.0,15.8,74,30.02,3.0,NE,5.8,-,0.00,Snow,Light Snow,50,2013-02-05 15:25:00
10:53 AM,23.0,17.1,78,30.02,6.0,NE,6.9,-,0.00,Snow,Light Snow,50,2013-02-05 15:53:00
11:53 AM,23.0,17.1,78,30.00,5.0,NE,4.6,-,0.00,Snow,Light Snow,40,2013-02-05 16:53:00
12:53 PM,24.1,18.0,77,29.99,9.0,ENE,4.6,-,0.00,,Overcast,70,2013-02-05 17:53:00
1:53 PM,24.1,18.0,77,29.97,10.0,NE,5.8,-,N/A,,Overcast,50,2013-02-05 18:53:00
2:53 PM,25.0,19.0,78,29.96,9.0,ENE,4.6,-,0.00,,Overcast,60,2013-02-05 19:53:00
3:30 PM,24.8,19.4,80,29.94,10.0,Variable,4.6,-,N/A,,Overcast,0,2013-02-05 20:30:00
3:53 PM,25.0,19.0,78,29.94,5.0,East,5.8,-,0.00,,Haze,90,2013-02-05 20:53:00
4:53 PM,25.0,19.0,78,29.95,10.0,ENE,4.6,-,N/A,,Overcast,60,2013-02-05 21:53:00
5:34 PM,24.8,19.4,80,29.94,2.0,NE,4.6,-,0.00,Snow,Light Snow,40,2013-02-05 22:34:00
5:42 PM,24.8,19.4,80,29.94,1.8,NE,4.6,-,0.00,Snow,Light Snow,40,2013-02-05 22:42:00
5:53 PM,24.1,19.9,84,29.94,1.5,ENE,3.5,-,0.00,Snow,Light Snow,60,2013-02-05 22:53:00
6:10 PM,24.8,21.2,86,29.94,1.8,NNE,4.6,-,0.00,Snow,Light Snow,30,2013-02-05 23:10:00
6:17 PM,24.8,21.2,86,29.94,2.0,NNE,4.6,-,0.00,Snow,Light Snow,20,2013-02-05 23:17:00
6:37 PM,24.8,21.2,86,29.94,3.0,NNE,5.8,-,0.00,Snow,Light Snow,30,2013-02-05 23:37:00
6:49 PM,24.8,21.2,86,29.94,7.0,NNE,5.8,-,0.00,,Overcast,30,2013-02-05 23:49:00
6:53 PM,24.1,21.0,88,29.95,8.0,NNE,5.8,-,0.00,,Overcast,30,2013-02-05 23:53:00
7:53 PM,25.0,21.9,88,29.94,10.0,NE,4.6,-,N/A,,Overcast,40,2013-02-06 00:53:00
8:43 PM,24.8,21.2,86,29.93,2.0,NNE,6.9,-,0.00,Snow,Light Snow,20,2013-02-06 01:43:00
8:53 PM,25.0,21.9,88,29.94,2.0,North,5.8,-,0.00,Snow,Light Snow,10,2013-02-06 01:53:00
9:02 PM,26.6,23.0,86,29.94,3.0,North,3.5,-,0.00,Snow,Light Snow,360,2013-02-06 02:02:00
9:53 PM,26.1,23.0,88,29.93,9.0,North,4.6,-,0.00,,Overcast,350,2013-02-06 02:53:00
10:53 PM,26.1,23.0,88,29.92,9.0,Calm,Calm,-,N/A,,Overcast,0,2013-02-06 03:53:00
11:53 PM,26.1,24.1,92,29.92,9.0,NNW,3.5,-,N/A,,Overcast,340,2013-02-06 04:53:00